Regional Weather Roundup
Issued by NWS

Home | Current Version | Previous Version | Graphics & Text | Print | Product List | Glossary On
Versions: 1 2 3 4 5 6 7 8 9 10 11 12 13 14 15 16 17 18 19 20 21 22 23 24 25 26 27 28 29 30 31 32 33 34 35 36 37 38 39 40 41 42 43 44 45 46 47 48 49 50
000
ASUS43 KLOT 290506
RWRIL

ILLINOIS REGIONAL WEATHER ROUNDUP
NATIONAL WEATHER SERVICE CHICAGO/ROMEOVILLE IL
1100 PM CST FRI NOV 28 2014

NOTE: "FAIR" INDICATES FEW OR NO CLOUDS BELOW 12,000 FEET WITH NO
SIGNIFICANT WEATHER AND/OR OBSTRUCTIONS TO VISIBILITY.

* THESE STATIONS ARE NOT UNDER NWS QUALITY CONTROL. THEY ALSO MAY NOT
  REPORT WEATHER SUCH AS PRECIPITATION OR FOG.

ILZ001-002-007-009-015-016-024-290600-
NORTHWEST ILLINOIS

CITY           SKY/WX    TMP DP  RH WIND       PRES   REMARKS
MOLINE         CLEAR     31  28  89 E6        29.79F WCI  25
STERLING*      CLEAR     30  27  86 SE6       29.82F WCI  24
SAVANNA*       CLEAR     31  28  88 SE7       29.81F WCI  25
$$

ILZ003-004-008-010-011-017-018-290600-
NORTH CENTRAL ILLINOIS

CITY           SKY/WX    TMP DP  RH WIND       PRES   REMARKS
ROCKFORD       MOCLDY    32  28  85 SE9       29.87F WCI  24
FREEPORT*      CLEAR     29  27  92 E3        29.85F FOG
ROCHELLE*      MOCLDY    31  29  93 S10       29.85F WCI  22
DE KALB*       CLOUDY    30  28  94 SE12      29.86F FOG     WCI  20
PERU*          PTCLDY    35  31  88 S10       29.86F WCI  27
$$

ILZ005-006-012>014-019>023-290600-
NORTHEAST ILLINOIS

CITY           SKY/WX    TMP DP  RH WIND       PRES   REMARKS
CHICAGO-OHARE  CLOUDY    33  28  81 S10       29.88F WCI  25
CHICAGO-MIDWAY MOCLDY    35  28  75 S10       29.90F WCI  27
AURORA         MOCLDY    32  28  85 SE9       29.89F FOG     WCI  24
LANSING*       MOCLDY    32  27  80 S7        29.93F WCI  26
JOLIET*        PTCLDY    33  29  86 S7        29.90F WCI  27
WAUKEGAN       CLOUDY    32  28  85 S5        29.88F WCI  27
DUPAGE AIRPORT CLOUDY    33  29  85 S9        29.87F WCI  25
KANKAKEE*      PTCLDY    33  29  85 S10       29.92F WCI  25
WHEELING       CLOUDY    33  29  85 S10       29.89F WCI  25
MORRIS*        MOCLDY    32  30  94 S6        29.89F WCI  26
ROMEOVILLE*    PTCLDY    32  29  88 S9        29.89F WCI  24
NORTHERLY ISL    N/A     34  27  76 S6          N/A  WCI  29
$$

LMZ740>746-290600-
SOUTHERN LAKE MICHIGAN

STATION/POSITION SKY/WX   TEMP    WIND        PRES    VSBY  WAVE
                          AIR SEA DIR/SP/G                  HT/PER
                          (F)     (DEG/KT/KT) (MB)    (MI)  (FT/S)
SOUTHERN BUOY              37 42  180/ 19/ 23 1013.5F         6/ 7
WAUKEGAN HARBOR            35     180/ 14/ 16   N/A
HARRISON CRIB              35     170/ 19/ 22   N/A
BURNHAM HARBOR             34     170/  8/ 10   N/A
CALUMET HARBOR             34     160/  8/ 12 1011.9F
MICHIGAN CITY              33     140/ 14/ 20   N/A
$$

ILZ025>027-034>036-040-047-049-050-058-095>099-290600-
WEST-CENTRAL ILLINOIS

CITY           SKY/WX    TMP DP  RH WIND       PRES   REMARKS
QUINCY         MOCLDY    42  33  70 S10       29.80S
GALESBURG*     CLEAR     35  32  90 SE8       29.80F WCI  28
MACOMB*        PTCLDY    35  32  90 S12       29.82F WCI  27
JACKSONVILLE*  CLOUDY    41  34  76 S10       29.84F
PITTSFIELD*    MOCLDY    43  34  70 S12       29.83F
$$

ILZ028>032-037-038-041>044-048-051>054-059>061-290600-
CENTRAL ILLINOIS

CITY           SKY/WX    TMP DP  RH WIND       PRES   REMARKS
PONTIAC        PTCLDY    35  32  88 S10       29.90S WCI  27
BLOOMINGTON    CLEAR     34  31  89 S15       29.89F WCI  24
DECATUR        CLEAR     36  29  75 S13       29.90F WCI  27
PEORIA         CLEAR     37  30  75 S10       29.86S WCI  30
LACON*         CLEAR     35  30  82 S8        29.85F WCI  29
LINCOLN*       CLEAR     38  32  80 S14       29.88F WCI  29
SPRINGFIELD    MOCLDY    38  32  79 S15       29.87F WCI  29
TAYLORVILLE    MOCLDY    36  32  87 S12       29.89F WCI  27
$$

ILZ033-039-045-046-055>057-062-063-290600-
EAST-CENTRAL ILLINOIS

CITY           SKY/WX    TMP DP  RH WIND       PRES   REMARKS
CHAMPAIGN      PTCLDY    34  29  82 S13       29.92F WCI  25
DANVILLE*      PTCLDY    35  28  75 S12G17    29.92F WCI  26
RANTOUL*       MOCLDY    34  31  87 S10       29.92F WCI  26
MATTOON        PTCLDY    36  27  69 S12       29.93F WCI  28
PARIS*         MOCLDY    34  29  84 SE9       29.97F WCI  26
$$

ILZ079-100>102-290600-
SOUTHWEST ILLINOIS

CITY           SKY/WX    TMP DP  RH WIND       PRES   REMARKS
ALTON          MOCLDY    40  33  75 S9        29.91F
BELLEVILLE     CLOUDY    41  36  82 S9        29.92F
CAHOKIA*       CLOUDY    39  34  82 SE6       29.92S WCI  35
SPARTA*        CLOUDY    42  33  69 S10       29.95F
$$

ILZ064>066-069>071-074>076-080>082-084>086-088>090-092>094-290600-
SOUTH-CENTRAL ILLINOIS

CITY           SKY/WX    TMP DP  RH WIND       PRES   REMARKS
CARBONDALE     MOCLDY    45  29  53 S20       29.99S
CAIRO*         CLEAR     43  30  60 S7        30.03S
EFFINGHAM*     PTCLDY    37  26  65 S8        29.95F WCI  31
MARION         PTCLDY    43  28  56 S15       30.00S
MT. VERNON     PTCLDY    39  27  60 S10       29.97F WCI  32
CENTRALIA*     MOCLDY    39  30  69 S9        29.95S WCI  33
SALEM*           N/A     43  31  62 S10       29.95F
METROPOLIS*    CLEAR     43  30  60 S8          N/A
$$

ILZ067-068-072-073-078-083-087-091-290600-
SOUTHEAST ILLINOIS

CITY           SKY/WX    TMP DP  RH WIND       PRES   REMARKS
LAWRENCEVILLE  CLEAR     34  28  79 S8        30.01S WCI  27
FLORA*         CLEAR     36  29  77 S8        29.97F WCI  29
FAIRFIELD*     CLEAR     38  29  71 S7        29.98S WCI  32
HARRISBURG*    CLEAR     42  29  61 S8        30.02S
ROBINSON*      CLEAR     34  28  77 S6        30.01S WCI  29
CARMI*         CLEAR     35  32  88 S6        30.01S WCI  30
$$

ABBREVIATIONS USED IN REMARKS
   TC - TEMPERATURE IN CELSIUS
  WCI - WIND CHILL INDEX
   HX - HEAT INDEX
  VSB - VISIBILITY
$$



USA.gov is the U.S. government's official web portal to all federal, state and local government web resources and services.